This demonstration page uses our WeatherBlox Daily Observations layout. Learn more.

Left ArrowRight Arrow

39.51506, -84.39828

Hourly Observations for July 22, 2015

Temp ( °F °C ) Dew Point ( °F °C ) Humidity (%) Winds ( mph kmh ) Pressure ( in mb ) Visibility ( mi km ) Precip ( " mm )
12:15 am 00:15 Clear 69 20.8 60 15.4 71 71 N 6 9 29.91 1013 10 16 N/A
12:35 am 00:35 Clear 69 20.8 60 15.3 71 71 N 6 9 29.91 1013 10 16 N/A
12:55 am 00:55 Clear 69 20.6 61 15.9 75 75 N 5 7 29.91 1013 10 16 N/A
1:15 am 01:15 Clear 67 19.5 58 14.5 73 73 N 5 7 29.91 1013 10 16 N/A
1:35 am 01:35 Clear 67 19.5 57 14.1 71 71 N 5 7 29.91 1013 10 16 N/A
1:55 am 01:55 Clear 65 18.1 55 12.8 71 71 N N/A 29.91 1013 10 16 N/A
2:15 am 02:15 Clear 64 18 55 12.6 71 71 N N/A 29.91 1013 10 16 N/A
2:35 am 02:35 Clear 63 17 56 13.4 79 79 N 3 6 29.94 1014 10 16 N/A
2:55 am 02:55 Clear 61 16 56 13.3 84 84 N 3 6 29.94 1014 10 16 N/A
3:15 am 03:15 Clear 61 16 56 13.1 83 83 N N/A 29.94 1014 10 16 N/A
3:35 am 03:35 Clear 61 16 56 13.1 83 83 N N/A 29.94 1014 10 16 N/A
3:55 am 03:55 Clear 60 15.6 55 13 85 85 N N/A 29.94 1014 10 16 N/A
4:15 am 04:15 Clear 60 15.3 55 13 86 86 N N/A 29.94 1014 10 16 N/A
4:35 am 04:35 Clear 57 14 53 11.9 87 87 N N/A 29.97 1015 10 16 N/A
4:55 am 04:55 Clear 60 15.3 56 13.3 88 88 N N/A 29.94 1014 10 16 N/A
5:15 am 05:15 Clear 59 15.1 56 13.1 88 88 N N/A 29.94 1014 10 16 N/A
5:35 am 05:35 Clear 59 15 56 13.2 89 89 N N/A 29.94 1014 10 16 N/A
5:55 am 05:55 Clear 57 13.8 54 12 89 89 N N/A 30.00 1016 10 16 N/A
6:15 am 06:15 Clear 57 13.8 54 12 89 89 N N/A 30.00 1016 10 16 N/A
6:35 am 06:35 Sunny 57 13.8 54 12 89 89 N N/A 30.00 1016 10 16 N/A
6:55 am 06:55 Sunny 57 13.8 54 12 89 89 N N/A 30.00 1016 10 16 N/A
7:15 am 07:15 Sunny 57 13.8 54 12 89 89 N N/A 30.00 1016 10 16 N/A
7:35 am 07:35 Sunny 60 15.3 56 13.4 89 89 N N/A 30.00 1016 10 16 N/A
7:55 am 07:55 Sunny 61 16.2 57 13.7 85 85 N N/A 29.97 1015 10 16 N/A
8:15 am 08:15 Sunny 63 17.1 56 13.1 77 77 NNE 3 6 29.97 1015 10 16 N/A
8:35 am 08:35 Sunny 64 18 56 13.6 76 76 N N/A 29.97 1015 10 16 N/A
8:55 am 08:55 Sunny 69 20.8 60 15.5 72 72 N N/A 29.97 1015 10 16 N/A
9:15 am 09:15 Sunny 69 20.8 57 13.8 64 64 N N/A 29.97 1015 10 16 N/A
9:35 am 09:35 Sunny 69 20.8 56 13.3 62 62 NE 3 6 29.97 1015 10 16 N/A
9:55 am 09:55 Sunny 72 22.3 57 13.8 59 59 NE 5 7 29.97 1015 10 16 N/A
10:15 am 10:15 Sunny 74 23.4 58 14.7 58 58 NE 5 7 29.97 1015 10 16 N/A
10:35 am 10:35 Sunny 74 23.6 58 14.7 58 58 NE 3 6 29.97 1015 10 16 N/A
10:55 am 10:55 Sunny 74 23.6 56 13.2 52 52 N N/A 29.97 1015 10 16 N/A
11:15 am 11:15 Sunny 77 24.8 56 13.3 49 49 NE 5 7 29.97 1015 10 16 N/A
11:35 am 11:35 Sunny 77 25.1 53 11.6 43 43 NNE 5 7 29.97 1015 10 16 N/A
11:55 am 11:55 Sunny 77 25.1 51 10.8 41 41 ENE 5 7 30.00 1016 10 16 N/A
12:15 pm 12:15 Sunny 77 25.1 53 11.4 42 42 NNE 8 13 30.00 1016 10 16 N/A
12:35 pm 12:35 Sunny 77 25.1 53 11.4 42 42 ENE 7 11 30.00 1016 10 16 N/A
12:55 pm 12:55 Partly Cloudy 78 25.7 53 11.9 42 42 ENE 5 7 30.00 1016 10 16 N/A
1:15 pm 13:15 Sunny 79 26.2 52 11.2 39 39 ENE 9 15 29.97 1015 10 16 N/A
1:35 pm 13:35 Sunny 80 26.5 51 10.8 37 37 NNE 7 11 29.97 1015 10 16 N/A
1:55 pm 13:55 Partly Cloudy 78 25.8 53 11.4 41 41 N 3 6 29.97 1015 10 16 N/A
2:15 pm 14:15 Partly Cloudy 80 26.5 52 11.1 38 38 N N/A 29.97 1015 10 16 N/A
2:35 pm 14:35 Partly Cloudy 80 26.5 52 11.3 39 39 N 3 6 29.97 1015 10 16 N/A
2:55 pm 14:55 Partly Cloudy 80 26.5 53 11.5 39 39 NE 7 11 29.97 1015 10 16 N/A
3:15 pm 15:15 Partly Cloudy 80 26.5 51 10.7 37 37 N N/A 29.97 1015 10 16 N/A
3:35 pm 15:35 Sunny 80 26.5 52 10.9 38 38 N 5 7 29.97 1015 10 16 N/A
3:55 pm 15:55 Sunny 80 26.5 52 11.3 39 39 NE 5 7 29.97 1015 10 16 N/A
4:15 pm 16:15 Sunny 80 26.5 53 11.5 39 39 N 7 11 29.94 1014 10 16 N/A
4:35 pm 16:35 Sunny 80 26.6 52 11.1 38 38 N N/A 29.94 1014 10 16 N/A
4:55 pm 16:55 Sunny 81 27.2 55 12.7 41 41 ENE 6 9 29.94 1014 10 16 N/A
5:15 pm 17:15 Sunny 81 27 54 12.3 40 40 N N/A 29.94 1014 10 16 N/A
5:35 pm 17:35 Sunny 81 27.2 53 11.8 38 38 NE 6 9 29.94 1014 10 16 N/A
5:55 pm 17:55 Sunny 80 26.6 53 11.5 39 39 NNW 6 9 29.94 1014 10 16 N/A
6:15 pm 18:15 Sunny 80 26.5 53 11.9 40 40 NNE 7 11 29.94 1014 10 16 N/A
6:35 pm 18:35 Sunny 80 26.5 53 11.4 39 39 N 7 11 29.94 1014 10 16 N/A
6:55 pm 18:55 Sunny 80 26.5 53 11.8 40 40 N 8 13 29.94 1014 10 16 N/A
7:15 pm 19:15 Sunny 80 26.5 54 12.1 41 41 N 6 9 29.94 1014 10 16 N/A
7:35 pm 19:35 Sunny 78 25.6 54 12 43 43 N 5 7 29.94 1014 10 16 N/A
7:55 pm 19:55 Sunny 77 25.1 54 12.3 45 45 NNW 5 7 29.94 1014 10 16 N/A
8:15 pm 20:15 Sunny 77 25.1 58 14.7 53 53 N N/A 29.94 1014 10 16 N/A
8:35 pm 20:35 Sunny 74 23.6 58 14.3 56 56 N N/A 29.94 1014 10 16 N/A
8:55 pm 20:55 Sunny 74 23.6 60 15.8 62 62 N N/A 29.94 1014 10 16 N/A
9:15 pm 21:15 Clear 70 21.1 59 15.1 69 69 N N/A 29.94 1014 10 16 N/A
9:35 pm 21:35 Clear 70 21.1 58 14.4 66 66 N N/A 29.97 1015 10 16 N/A
9:55 pm 21:55 Clear 69 20.8 59 15.2 70 70 N N/A 29.97 1015 10 16 N/A
10:15 pm 22:15 Clear 69 20.8 63 17 79 79 NNE 3 6 29.97 1015 10 16 N/A
10:35 pm 22:35 Clear 67 19.4 62 16.5 83 83 N N/A 29.97 1015 10 16 N/A
10:55 pm 22:55 Clear 64 18 60 15.5 85 85 N N/A 29.97 1015 10 16 N/A
11:15 pm 23:15 Clear 64 18 60 15.5 85 85 N N/A 29.97 1015 10 16 N/A
11:35 pm 23:35 Clear 64 18 60 15.6 86 86 N N/A 30.00 1016 10 16 N/A
11:55 pm 23:55 Clear 64 17.5 59 15 85 85 N N/A 30.00 1016 10 16 N/A

Powered by AerisWeather